Regional Weather Roundup
Issued by NWS

Home | Current Version | Previous Version | Text Only | Print | Product List | Glossary On
Versions: 1 2 3 4 5 6 7 8 9 10 11 12 13 14 15 16 17 18 19 20 21 22 23 24 25 26 27 28 29 30 31 32 33 34 35 36 37 38 39 40 41 42 43 44 45 46 47 48 49 50
000
ASUS43 KTOP 190908
RWRKS

WEATHER ROUNDUP FOR KANSAS
NATIONAL WEATHER SERVICE GOODLAND KS
400 AM CDT FRI SEP 19 2014

NOTE:  "FAIR" INDICATES FEW OR NO CLOUDS BELOW 12,000 FEET WITH NO
SIGNIFICANT WEATHER AND/OR OBSTRUCTIONS TO VISIBILITY.

KSZ001>006-013>018-027>032-041>047-191000-
NORTHWEST KANSAS

CITY           SKY/WX    TMP DP  RH WIND       PRES   REMARKS
GOODLAND       CLEAR     61  58  90 S9        29.93F
HAYS           CLEAR     64  57  77 S10       29.93S
HILL CITY      CLEAR     66  61  84 SW5       29.90F
RUSSELL        CLEAR     64  61  90 S13       29.91F
$$

KSZ061>065-074>080-084>089-191000-
SOUTHWEST KANSAS

CITY           SKY/WX    TMP DP  RH WIND       PRES   REMARKS
DODGE CITY     CLEAR     63  58  83 SW9       29.97S
ELKHART          N/A     61  56  84 S9          N/A
GARDEN CITY    CLEAR     61  58  90 SW8       29.96F
GREAT BEND     CLEAR     64  59  82 S12       29.95S
LIBERAL        CLEAR     61  54  77 SW6       30.00F
PRATT          CLEAR     64  61  88 S7        29.98S
$$

KSZ066>073-081>083-090>101-191000-
SOUTHEAST KANSAS

CITY           SKY/WX    TMP DP  RH WIND       PRES   REMARKS
CHANUTE        PTCLDY    63  62  97 SE9       29.98F
COFFEYVILLE    CLEAR     63  62  97 SE3       29.98F
HUTCHINSON     CLEAR     65  61  87 S7        29.95F
MEDICINE LODGE   N/A     65  63  93 VRB3      29.96S
NEWTON         CLEAR     63  57  82 SE7       29.99S
PARSONS        CLEAR     64  63  96 SE3       29.99F
WICHITA INTL   CLEAR     65  62  90 SE6       29.95F
WICHITA JABRA  CLEAR     64  62  93 SE7       29.96F
WICHITA MCCONL CLEAR     65  65 100 SE8       29.96F
WINFIELD       CLEAR     65  64  97 SE6       29.97F
$$

KSZ007>012-019>026-033>040-048>060-102>105-191000-
NORTHEAST KANSAS

CITY           SKY/WX    TMP DP  RH WIND       PRES   REMARKS
CONCORDIA      CLEAR     64  64 100 SE10      29.94F
EMPORIA        CLEAR     63  62  97 S6        29.98S
LAWRENCE       CLEAR     59  58  96 E7        30.00S FOG
MANHATTAN      CLEAR     61  60  97 CALM      29.96F
MARYSVILLE     CLOUDY    63  63 100 S7        29.97S
OLATHE IND     CLOUDY    61  61 100 SE7       30.01S FOG
OLATHE EXE     CLOUDY    61  61 100 SE7       30.00F FOG
SALINA         CLEAR     65  62  90 SE7       29.95F
TOPEKA BILLARD PTCLDY    62  61  96 E3        29.99S
TOPEKA FORBES  PTCLDY    62  61  96 SE7       29.98F
$$



USA.gov is the U.S. government's official web portal to all federal, state and local government web resources and services.